Theta_e
300 297 296 299 310 313 318 320 319 317 326 329 330 335 336 348 354 356 355 358 362 364 363 364 364 362 361 361 361 361 361 361
296 295 303 306 311 314 319 319 321 319 322 329 339 336 345 350 354 351 353 359 363 363 364 363 364 363 361 361 361 361 361 361
294 298 305 311 315 318 317 320 318 319 324 328 337 343 346 348 351 349 355 359 362 364 364 365 364 363 362 361 360 360 361 361
293 299 306 313 316 318 320 322 320 320 328 328 337 337 345 346 346 348 354 357 360 363 363 363 364 362 361 360 360 360 360 360
296 299 304 310 318 317 318 319 319 323 325 328 330 333 340 343 344 354 354 354 357 359 361 363 362 362 361 360 360 359 358 358
299 299 300 310 315 321 320 318 326 327 324 326 332 335 337 339 350 351 352 351 352 355 358 358 359 362 361 360 360 359 359 358
297 300 304 310 314 320 325 317 320 325 333 337 341 340 333 333 346 347 348 347 348 352 353 355 356 360 361 361 361 359 358 357
302 304 305 309 311 315 315 313 314 319 324 330 338 335 334 332 335 344 343 344 346 347 348 349 356 355 356 357 356 354 354 353
303 305 307 307 309 313 310 307 313 313 320 324 325 329 332 333 334 340 344 343 344 344 344 342 348 353 353 354 353 351 350 350
303 305 306 305 310 311 309 309 315 316 318 315 313 312 314 325 335 337 343 342 343 344 344 339 341 348 349 349 349 348 347 348
305 304 304 305 304 309 308 312 313 315 315 313 311 312 313 316 326 333 337 342 342 343 341 339 345 343 342 344 345 345 344 347
303 303 303 301 303 303 306 311 310 311 313 311 312 313 313 315 317 329 335 340 345 342 340 339 343 341 338 339 342 342 343 344
302 301 300 302 299 301 306 308 306 308 310 310 311 311 313 315 317 324 338 343 345 346 344 340 344 345 338 336 339 339 340 341
298 302 303 301 293 303 305 305 304 306 308 309 308 310 313 316 316 322 334 338 342 338 346 343 341 347 351 340 338 338 341 340
296 301 302 299 294 302 305 305 304 304 305 307 307 309 312 317 316 322 328 333 338 341 349 348 347 347 349 350 346 342 343 345
293 299 299 297 297 301 304 303 304 304 305 306 307 308 312 313 315 321 329 331 337 345 348 349 352 350 351 349 349 351 347 345
297 301 298 297 297 299 302 301 301 303 304 305 307 310 310 315 317 318 320 320 323 333 341 348 349 348 348 348 348 346 348 348
297 301 297 296 296 299 301 301 301 303 303 305 306 308 311 311 314 316 319 323 323 324 331 345 345 348 348 346 348 347 348 349
294 299 298 295 292 296 301 302 303 304 304 306 306 306 308 311 312 316 317 319 322 323 325 330 337 341 343 345 345 344 346 348
297 293 286 295 284 293 297 298 301 303 302 304 306 308 309 309 312 313 314 316 322 327 326 328 329 331 332 334 336 339 339 345
Wind_Speed
3 4 10 9 19 10 4 8 5 3 11 5 8 16 10 22 22 18 14 11 14 21 22 20 17 16 16 16 16 16 15 15
2 10 13 21 20 22 11 5 5 5 9 6 12 9 14 24 21 19 12 11 16 19 20 20 19 16 16 16 15 15 14 14
5 11 12 18 21 20 6 10 6 5 4 7 5 23 27 24 20 19 14 12 13 18 18 19 18 19 16 17 16 16 15 14
8 17 18 19 21 4 2 11 11 3 9 5 8 15 22 23 22 20 15 12 12 17 18 17 17 17 18 16 16 16 16 16
9 16 16 22 11 6 5 8 8 9 4 7 8 8 16 19 20 19 18 15 10 9 14 17 17 16 17 18 18 16 16 17
13 15 20 19 14 9 7 5 8 10 1 7 5 9 10 14 19 18 16 16 13 10 9 9 10 17 17 17 17 16 16 15
17 17 18 7 8 1 17 1 5 9 11 12 12 6 8 12 16 15 14 14 13 11 10 9 9 11 16 19 19 18 16 16
11 16 18 13 4 11 10 5 4 6 11 5 11 9 9 6 17 18 16 15 14 13 10 9 9 10 9 10 8 8 9 10
16 20 20 17 7 12 7 3 6 6 9 11 6 6 6 6 5 20 20 15 17 15 11 9 9 7 5 5 5 6 9 9
15 13 18 14 8 6 4 8 6 4 3 8 9 6 4 3 1 3 14 17 18 17 17 12 5 7 8 7 6 6 8 10
18 13 15 9 7 3 7 5 6 3 7 7 3 3 5 4 6 9 8 10 18 18 17 13 13 7 8 8 8 9 8 10
12 17 12 7 5 3 5 4 7 7 2 4 5 5 7 7 6 8 14 15 11 17 13 14 11 13 10 9 11 9 9 10
11 6 6 4 6 8 6 7 8 6 7 4 4 5 9 10 4 8 13 18 16 13 16 18 14 14 10 10 10 10 10 12
7 7 10 6 8 7 9 9 10 10 10 6 7 10 9 9 7 7 9 14 16 14 15 15 13 9 9 10 7 10 9 10
8 8 10 10 6 10 10 14 13 11 9 7 6 8 8 7 5 8 9 10 10 9 15 14 11 8 7 7 6 7 8 8
9 17 11 13 11 11 11 8 15 12 9 8 8 10 9 8 7 8 8 8 6 6 5 10 6 4 3 4 4 3 4 5
12 17 12 16 12 12 11 7 5 8 9 8 9 9 9 8 7 8 8 8 8 6 2 3 2 3 3 7 3 3 4 6
9 5 3 2 8 8 7 6 7 11 11 11 9 7 6 8 8 8 9 8 6 5 4 2 3 2 3 3 4 5 4 8
5 10 7 5 4 4 5 3 7 8 9 9 12 10 8 8 9 9 8 9 8 8 5 3 2 2 3 2 3 2 4 7
6 8 4 2 6 6 5 11 11 12 10 11 11 8 7 8 7 10 9 8 7 8 7 4 3 4 2 2 3 3 4 5
Wind_Direction
197 198 235 259 256 242 281 348 48 48 101 84 107 125 152 116 130 127 140 147 146 140 139 142 143 142 140 140 137 134 134 131
243 255 246 248 273 275 322 339 18 309 77 71 132 130 127 127 130 125 141 142 143 142 142 145 145 144 143 141 138 136 135 133
230 249 258 262 259 268 279 287 288 257 87 86 68 117 131 132 134 141 139 141 141 138 142 145 149 146 146 145 143 141 137 137
226 250 259 255 258 336 284 266 306 59 108 92 125 126 138 140 144 145 136 137 142 142 142 144 147 149 147 147 144 144 143 145
244 259 264 252 243 116 284 293 9 6 94 129 126 153 138 143 139 132 137 132 131 142 148 148 149 149 152 150 150 152 154 154
241 252 260 268 274 162 286 316 125 273 14 116 195 150 129 122 128 135 137 141 145 143 143 145 152 155 154 155 153 154 157 162
242 244 254 282 39 332 194 162 272 54 109 153 139 162 136 128 139 137 140 146 147 150 154 153 154 164 160 163 162 161 163 166
242 253 262 282 322 237 185 6 203 83 144 135 141 165 139 166 154 151 151 155 156 155 159 161 168 171 164 170 167 165 166 170
241 262 268 278 291 322 148 169 223 146 181 161 175 198 115 184 139 156 160 159 162 158 163 176 170 161 167 168 169 175 172 172
247 244 259 262 240 170 283 177 154 150 91 78 47 31 70 93 29 93 163 163 164 166 163 175 148 173 177 173 178 182 188 180
238 249 261 276 290 172 241 330 333 18 86 110 65 4 328 289 179 202 160 156 168 173 171 172 154 180 184 184 185 185 180 186
221 235 246 232 242 103 288 290 308 325 322 144 167 192 282 285 278 158 183 191 182 181 178 161 168 174 185 186 182 181 191 191
234 239 260 228 264 231 210 275 256 243 280 216 228 224 222 263 255 148 136 149 152 156 178 184 179 176 180 199 184 189 194 193
247 231 259 185 245 250 230 220 228 230 220 233 236 249 237 218 190 116 134 155 170 179 192 198 190 180 169 192 185 196 192 193
279 250 215 179 218 230 240 225 227 213 189 201 254 261 244 214 202 151 141 148 163 218 187 190 194 191 173 176 188 203 201 186
225 241 236 215 214 221 234 237 226 201 183 189 219 249 228 210 178 107 100 107 82 91 176 187 178 174 164 178 205 199 206 200
237 242 221 220 199 205 218 234 156 152 172 198 227 240 216 218 134 118 107 104 106 81 93 135 154 163 189 213 211 197 216 219
282 313 336 290 205 195 203 218 185 192 197 198 207 225 198 158 152 142 143 132 114 108 96 58 142 207 204 206 228 215 218 223
311 314 318 339 286 221 237 227 272 211 207 192 189 204 207 174 165 149 144 146 154 169 151 135 96 25 317 289 309 279 239 231
295 304 263 7 271 269 226 242 241 245 205 193 188 188 191 188 141 148 158 143 136 134 143 141 45 53 67 284 279 258 246 249